Regional Weather Roundup
Issued by NWS Little Rock, AR

Home | Current Version | Previous Version | Text Only | Print | Product List | Glossary Off
Versions: 1 2 3 4 5 6 7 8 9 10 11 12 13 14 15 16 17 18 19 20 21 22 23 24 25 26 27 28 29 30 31 32

000
ASUS44 KLZK 230012
RWRLZK

WEATHER ROUNDUP FOR ARKANSAS
NATIONAL WEATHER SERVICE LITTLE ROCK AR
700 PM CDT SUN OCT 22 2017

NOTE: "FAIR" INDICATES FEW OR NO CLOUDS BELOW 12,000 FEET WITH NO
SIGNIFICANT WEATHER AND/OR OBSTRUCTIONS TO VISIBILITY.

ARZ001-003-010-029-230100-
NORTHWEST ARKANSAS

CITY           SKY/WX    TMP DP  RH WIND       PRES   REMARKS
FAYETTEVILLE   CLEAR     50  48  93 CALM      30.13R
6HR MIN TEMP:  50; 6HR MAX TEMP:  61;

FORT SMITH     CLEAR     61  46  57 NW5       30.12R
6HR MIN TEMP:  60; 6HR MAX TEMP:  67;

HARRISON       LGT RAIN  50  49  96 NW7       30.10S
6HR MIN TEMP:  50; 6HR MAX TEMP:  53; 6HR PCP:  0.14;

BENTONVILLE    CLEAR     53  46  77 CALM      30.14R
6HR MIN TEMP:  52; 6HR MAX TEMP:  60;

ROGERS         CLEAR     54  46  74 CALM      30.13R
6HR MIN TEMP:  51; 6HR MAX TEMP:  58; 6HR PCP: TRACE;

SILOAM SPGS    PTCLDY    54  43  66 N3        30.13S
6HR MIN TEMP:  54; 6HR MAX TEMP:  62;

HIGHFILL       CLEAR     52  47  83 CALM      30.13
6HR MIN TEMP:  52; 6HR MAX TEMP:  62; 6HR PCP: TRACE;

$$

ARZ004-005-016-230100-
NORTH CENTRAL ARKANSAS

CITY           SKY/WX    TMP DP  RH WIND       PRES   REMARKS
BATESVILLE     LGT RAIN  55  53  93 NW6       30.03S
6HR MIN TEMP:  55; 6HR MAX TEMP:  67; 6HR PCP:  0.05;

FLIPPIN        LGT RAIN  52  50  93 NW8       30.07S
6HR MIN TEMP:  52; 6HR MAX TEMP:  57;

MTN HOME       LGT RAIN  52  52 100 N3        30.06R FOG
6HR MIN TEMP:  52; 6HR MAX TEMP:  55; 6HR PCP:  0.22;

$$

ARZ040-041-230100-
WEST CENTRAL ARKANSAS

CITY           SKY/WX    TMP DP  RH WIND       PRES   REMARKS
MENA           CLEAR     59  50  72 CALM      30.11R
$$

ARZ009-017-025-026-028-230100-
NORTHEAST ARKANSAS

CITY           SKY/WX    TMP DP  RH WIND       PRES   REMARKS
CORNING        MOCLDY    57  57 100 N14G20    30.00R FOG
JONESBORO      CLOUDY    58  58 100 NW10      30.00R
6HR MIN TEMP:  58; 6HR MAX TEMP:  72; 6HR PCP:  0.06;

NEWPORT        LGT RAIN  57  56  96 N14       30.01R
6HR MIN TEMP:  57; 6HR MAX TEMP:  70; 6HR PCP:  0.01;

WALNUT RIDGE   CLOUDY    57  55  93 NW14      30.01R
BLYTHEVILLE    LGT RAIN  62  62 100 N15G28    29.95R
6HR MIN TEMP:  65; 6HR MAX TEMP:  73;

$$

ARZ022-023-033-042-044-230100-
CENTRAL ARKANSAS

CITY           SKY/WX    TMP DP  RH WIND       PRES   REMARKS
LITTLE ROCK    CLOUDY    58  56  93 NW8       30.05R
6HR MIN TEMP:  58; 6HR MAX TEMP:  66; 6HR PCP: TRACE;

N LITTLE ROCK    N/A     58  54  89 NW5       30.06R
6HR MIN TEMP:  58; 6HR MAX TEMP:  62;

JACKSONVILLE   CLOUDY    59  54  84 NW6       30.04R
6HR MIN TEMP:  59; 6HR MAX TEMP:  66; 6HR PCP:  0.01;

SEARCY         CLOUDY    59  56  89 NW5       30.04R
6HR MIN TEMP:  59; 6HR MAX TEMP:  67;

HOT SPRINGS    CLOUDY    61  54  77 NW9       30.07R
6HR MIN TEMP:  61; 6HR MAX TEMP:  67;

RUSSELLVILLE   CLOUDY    58  51  78 NW9       30.07R
6HR MIN TEMP:  58; 6HR MAX TEMP:  63; 6HR PCP:  0.01;

CLINTON        CLOUDY    55  52  88 VRB6      30.06R
$$

ARZ036-230100-
EAST ARKANSAS

CITY           SKY/WX    TMP DP  RH WIND       PRES   REMARKS
WEST MEMPHIS   LGT RAIN  61  61 100 NW8G22    29.99R FOG
6HR MIN TEMP:  63; 6HR MAX TEMP:  70; 6HR PCP:  0.15;

$$

ARZ050-053-066-070-073-230100-
SOUTHWEST ARKANSAS

CITY           SKY/WX    TMP DP  RH WIND       PRES   REMARKS
ARKADELPHIA    CLOUDY    63  54  72 NW7       30.07R
6HR MIN TEMP:  63; 6HR MAX TEMP:  69; 6HR PCP: TRACE;

CAMDEN         CLOUDY    63  57  82 CALM      30.03S
TEXARKANA      MOCLDY    61  52  72 NW7       30.09R
6HR MIN TEMP:  62; 6HR MAX TEMP:  71; 6HR PCP: TRACE;

EL DORADO      MOCLDY    63  62  97 CALM      30.05R
6HR MIN TEMP:  61; 6HR MAX TEMP:  69; 6HR PCP:  0.01;

DE QUEEN       CLEAR     60  51  72 NW3       30.08R
6HR MIN TEMP:  60; 6HR MAX TEMP:  70;

$$

ARZ056-057-069-230100-
SOUTHEAST ARKANSAS

CITY           SKY/WX    TMP DP  RH WIND       PRES   REMARKS
PINE BLUFF     CLOUDY    62  56  80 NW10      30.03R
6HR MIN TEMP:  62; 6HR MAX TEMP:  66;

STUTTGART      PTCLDY    60  56  86 NW15      30.02R
6HR MIN TEMP:  60; 6HR MAX TEMP:  67; 6HR PCP:  0.01;

MONTICELLO     PTCLDY    61  58  90 CALM      30.03R
6HR MIN TEMP:  61; 6HR MAX TEMP:  66; 6HR PCP: TRACE;


$$






USA.gov is the U.S. government's official web portal to all federal, state and local government web resources and services.